{"data":{"norad_id":69375,"intl_designator":"2026-123Y","name":"STARLINK-37454","alt_names":[],"object_type":"PAYLOAD","status":"ACTIVE","operator":null,"country":"US","launch_date":"2026-06-04","launch_site_code":"AFETR","launch_vehicle":null,"mission":null,"orbit_class":"UNKNOWN","rcs_meters":null,"size_class":null,"mass_kg":null,"dimensions":null,"purposes":["comms"],"wikipedia_slug":null,"has_3d_model":false,"image_url":null,"decayed_at":null,"tle_current":{"epoch":"2026-09-20T03:57:59.641632Z","epoch_age_seconds":57880,"freshness":"FRESH","line1":"1 69375U 26123Y   26263.16527363  .00014049  00000+0  42606-3 0  9994","line2":"2 69375  53.1576 143.6304 0001420  92.1754 267.9411 15.34407403 16812","mean_motion":15.34407403,"eccentricity":0.000142,"inclination_deg":53.1576,"raan_deg":143.6304,"arg_perigee_deg":92.1754,"mean_anomaly_deg":267.9411,"bstar":0.00042606,"rev_number":1681,"period_min":93.847305297445,"perigee_km":461.7098408298,"apogee_km":463.65263320912,"semimajor_km":6840.8182370195,"source":"CELESTRAK","updated_at":"2026-09-20T09:00:44.192578Z"}}}